Temp
76 81 79 81 81 89 89 90 88 88 87 82 83 81 82 85 84 84 85 85 85 82 80 81 79 86 86 80 82 81 82 89 84 86 81 79 90 88 88 93 96 93 93
74 74 84 88 88 93 92 90 88 86 85 84 83 83 87 91 83 83 81 83 80 78 81 84 82 83 86 84 81 84 80 82 88 80 78 73 81 86 88 88 93 94 96
85 87 89 91 94 91 88 86 87 88 86 86 86 87 88 86 75 73 73 76 78 78 82 80 83 82 85 88 82 81 85 85 81 88 80 68 69 77 79 86 87 90 95
92 93 94 94 94 92 93 91 89 88 87 87 88 85 84 77 78 77 83 81 77 77 80 82 83 80 85 83 81 89 85 85 77 79 90 88 74 70 72 74 84 84 88
95 94 95 92 94 95 95 93 90 88 90 89 87 85 82 79 80 78 80 81 83 82 81 83 83 82 85 87 88 86 85 88 88 79 86 79 76 78 73 67 74 78 83
95 95 97 97 97 98 96 94 90 88 89 89 86 82 81 82 80 80 78 78 81 80 84 86 84 83 83 85 87 88 86 85 86 86 85 82 80 71 70 69 73 75 79
95 95 94 94 95 95 97 96 92 88 89 89 89 84 83 85 84 81 79 78 80 81 81 84 83 85 85 86 86 85 85 85 87 86 89 86 80 82 78 70 73 73 73
96 96 95 95 95 95 95 96 94 90 91 90 89 88 88 86 85 86 91 88 83 85 86 88 88 87 85 87 87 88 88 89 90 86 87 89 82 86 86 81 83 77 77
96 96 97 96 96 96 95 95 93 92 92 93 91 89 88 88 87 88 91 93 90 89 88 86 84 87 86 85 87 88 86 86 88 89 88 89 93 89 91 87 92 87 81
97 97 97 96 97 99 99 96 93 93 95 94 94 92 88 89 87 86 88 88 90 90 88 86 86 87 88 87 86 88 88 86 90 92 89 87 92 94 95 93 83 83 87
96 97 97 99 98 100 99 97 92 92 95 93 87 87 86 89 84 86 86 86 87 87 87 86 85 85 84 86 86 86 86 86 86 88 87 87 87 90 93 94 94 92 84
96 96 96 96 95 95 95 93 91 91 91 91 91 89 88 85 88 87 88 88 87 84 82 85 83 82 84 86 83 84 87 86 85 87 86 86 91 84 87 89 86 90 89
93 94 94 92 90 89 89 90 91 92 94 93 92 89 90 90 88 88 88 85 84 86 89 84 84 82 82 82 86 86 85 86 87 87 85 87 87 83 87 87 89 91 90
89 91 90 89 89 88 87 88 88 89 90 90 90 87 88 89 88 87 86 87 87 86 86 84 83 83 83 84 84 83 84 86 87 88 88 88 87 83 83 83 80 84 87
88 88 87 86 85 85 86 87 88 87 87 86 86 86 86 86 86 85 85 86 86 86 86 86 87 86 84 84 83 83 83 82 82 84 84 87 86 80 80 81 81 79 78
87 87 86 86 85 85 86 86 87 86 86 84 84 84 83 83 83 83 83 83 83 84 84 84 85 85 90 71 70 76 82 82 81 80 83 85 79 78 73 71 73 79 77
86 87 87 87 86 86 86 85 86 85 83 82 82 81 81 80 80 80 80 79 80 81 81 82 83 83 84 74 71 72 85 84 84 82 82 83 89 81 84 75 71 71 71
86 86 89 88 87 89 88 85 86 83 81 80 80 80 79 79 79 78 78 78 79 79 79 80 80 81 82 71 69 70 81 82 83 84 84 83 82 83 81 83 82 82 84
88 88 90 87 86 85 84 84 82 82 80 80 79 79 79 77 77 76 77 77 77 78 78 80 79 79 80 70 67 69 80 81 81 83 84 84 84 76 70 79 80 81 82
88 84 84 84 84 81 82 80 80 80 79 78 77 77 74 73 73 74 73 74 75 76 79 78 79 76 79 71 67 69 81 79 81 82 82 73 78 71 65 75 78 76 79
84 83 83 82 80 82 81 78 78 77 75 75 73 70 71 70 71 72 72 71 71 71 71 72 73 74 73 75 66 63 77 79 80 82 84 87 68 65 64 64 80 78 78
79 81 81 82 81 80 79 76 75 73 74 73 72 70 70 72 73 70 70 69 70 71 69 71 72 76 77 70 67 62 62 71 77 77 81 81 58 57 58 62 66 62 65
80 81 82 79 80 78 76 73 72 72 71 71 70 70 70 69 71 69 68 70 70 69 68 69 69 71 74 74 66 61 59 61 63 75 71 61 59 59 61 58 60 60 76
80 81 79 77 76 74 75 73 72 71 69 67 67 68 68 67 69 69 71 70 70 68 65 67 67 67 68 71 75 75 77 66 68 65 67 68 64 63 67 68 71 75 75
79 79 77 76 74 74 72 72 71 68 67 67 67 68 69 68 67 67 67 66 68 63 65 66 65 63 65 69 58 58 66 68 66 59 71 74 77 76 77 78 78 77 72
77 75 74 74 73 74 71 69 68 67 65 65 68 68 68 67 66 67 68 61 55 53 51 48 52 65 57 48 47 46 45 46 47 56 65 71 75 76 75 71 72 73 73
MSLP
1011.29 1011.77 1012.22 1011.90 1011.83 1011.55 1011.94 1012.39 1012.90 1013.51 1014.09 1014.37 1014.56 1014.76 1014.82 1014.94 1015.27 1015.51 1015.70 1015.89 1016.30 1016.97 1017.18 1017.40 1017.36 1016.98 1016.90 1017.14 1017.26 1017.20 1017.06 1016.15 1016.22 1015.79 1016.46 1016.71 1016.12 1015.83 1015.61 1015.01 1015.05 1015.64 1016.06
1011.20 1011.63 1010.89 1010.68 1010.87 1010.89 1011.49 1012.06 1012.76 1013.59 1014.00 1014.29 1014.65 1014.76 1014.60 1014.18 1015.20 1015.56 1015.89 1016.19 1016.54 1016.72 1016.80 1016.62 1016.82 1016.94 1016.79 1016.97 1017.18 1017.05 1016.71 1016.24 1015.48 1016.20 1016.73 1016.78 1016.48 1015.91 1015.45 1015.37 1015.20 1015.32 1015.37
1009.27 1009.68 1009.85 1009.89 1009.83 1010.97 1011.76 1012.22 1012.71 1013.02 1013.64 1014.02 1014.33 1014.28 1014.45 1014.85 1015.31 1015.71 1016.12 1016.27 1016.25 1016.69 1016.41 1016.49 1016.38 1016.87 1016.69 1016.20 1016.76 1016.77 1016.48 1016.14 1016.24 1015.80 1016.20 1016.88 1016.81 1016.42 1016.07 1015.69 1015.55 1015.40 1015.28
1007.43 1008.03 1008.43 1008.90 1009.51 1010.43 1011.05 1011.72 1012.30 1012.75 1013.27 1013.45 1013.45 1013.61 1014.05 1014.62 1015.04 1015.39 1015.58 1015.79 1015.73 1016.12 1015.98 1016.28 1016.17 1016.44 1016.48 1015.92 1016.28 1016.05 1016.39 1016.28 1016.31 1015.96 1015.18 1015.22 1016.34 1016.42 1016.37 1016.35 1015.74 1015.69 1015.42
1006.46 1007.28 1007.71 1008.54 1009.22 1009.88 1010.27 1011.08 1011.83 1012.34 1012.51 1012.93 1013.18 1013.39 1013.86 1014.31 1014.59 1015.04 1015.11 1015.09 1015.04 1015.40 1015.74 1015.66 1015.81 1016.17 1016.16 1015.78 1015.75 1015.87 1016.09 1015.86 1015.58 1015.37 1015.01 1014.73 1015.12 1015.43 1016.49 1017.03 1016.54 1015.90 1015.49
1006.07 1006.70 1007.38 1007.90 1008.44 1009.17 1009.63 1010.29 1011.40 1011.95 1012.30 1012.68 1013.20 1013.48 1013.72 1014.04 1014.18 1014.31 1014.68 1014.66 1014.81 1014.87 1014.74 1014.95 1015.34 1015.61 1015.90 1015.70 1015.77 1015.80 1016.06 1016.03 1015.88 1015.57 1015.02 1014.44 1014.94 1016.03 1016.93 1017.71 1016.88 1015.71 1014.85
1005.95 1006.65 1007.43 1007.93 1008.29 1008.75 1009.14 1009.74 1010.78 1011.47 1011.88 1012.21 1012.50 1013.08 1013.30 1013.47 1013.62 1013.83 1014.06 1014.28 1014.35 1014.57 1014.58 1014.56 1014.90 1015.05 1015.18 1015.23 1015.44 1015.78 1016.01 1016.03 1015.69 1015.60 1014.99 1014.73 1015.37 1015.17 1015.67 1015.95 1015.68 1015.54 1014.59
1005.72 1006.36 1007.00 1007.62 1008.14 1008.63 1009.13 1009.38 1009.88 1010.87 1011.27 1011.75 1012.09 1012.42 1012.66 1012.92 1012.84 1012.78 1012.50 1012.88 1013.29 1013.59 1013.84 1013.99 1014.15 1014.39 1014.45 1014.59 1014.93 1015.24 1015.37 1015.02 1015.06 1015.39 1015.31 1014.80 1014.59 1014.41 1014.14 1013.77 1013.44 1014.05 1013.54
1005.13 1005.83 1006.66 1007.41 1007.96 1008.45 1008.95 1009.41 1009.98 1010.50 1010.82 1010.95 1011.63 1012.08 1012.39 1012.62 1012.58 1012.28 1012.44 1012.27 1012.79 1012.93 1013.28 1013.66 1013.99 1014.04 1014.24 1014.50 1014.59 1014.75 1015.06 1014.93 1014.90 1014.63 1014.77 1014.79 1014.22 1013.79 1013.56 1013.62 1013.10 1012.64 1013.09
1004.70 1005.54 1006.45 1007.32 1007.85 1008.08 1008.53 1009.38 1010.26 1010.37 1010.34 1010.65 1010.92 1011.23 1012.16 1012.46 1012.83 1012.97 1012.61 1012.73 1012.60 1012.86 1013.03 1013.48 1013.70 1013.70 1013.77 1014.07 1014.38 1014.16 1014.33 1014.65 1014.28 1014.13 1014.12 1014.50 1013.89 1013.53 1013.19 1013.16 1013.40 1013.07 1013.10
1004.59 1005.36 1006.13 1006.85 1007.49 1007.67 1008.26 1009.24 1010.37 1010.41 1010.21 1010.54 1011.36 1012.00 1012.36 1012.36 1012.90 1012.86 1012.93 1012.83 1012.85 1012.87 1013.00 1013.30 1013.42 1013.52 1013.69 1013.63 1013.78 1013.96 1013.85 1013.88 1014.03 1014.11 1014.00 1014.12 1014.41 1013.97 1013.27 1012.76 1012.43 1012.34 1012.70
1004.83 1005.75 1006.61 1007.31 1007.93 1008.44 1008.94 1009.94 1010.57 1010.90 1011.23 1011.42 1011.51 1011.93 1012.22 1012.67 1012.59 1012.62 1012.68 1012.78 1012.46 1012.83 1012.89 1013.01 1013.20 1013.30 1013.30 1013.21 1013.57 1013.52 1013.34 1013.47 1013.51 1013.51 1013.64 1013.64 1013.51 1013.81 1013.76 1013.50 1013.01 1012.45 1012.47
1005.35 1006.27 1007.00 1007.99 1008.88 1009.70 1010.39 1010.76 1010.92 1011.06 1011.20 1011.19 1011.48 1012.04 1012.00 1011.98 1012.26 1012.49 1012.42 1012.66 1012.64 1012.58 1012.32 1012.56 1012.71 1012.86 1012.84 1012.87 1012.77 1012.91 1013.06 1013.01 1012.89 1012.91 1013.12 1013.06 1013.13 1013.29 1013.25 1013.09 1012.67 1012.17 1012.28
1006.02 1006.88 1007.94 1008.95 1009.71 1010.30 1010.85 1011.23 1011.50 1011.59 1011.67 1011.74 1011.88 1012.19 1012.26 1012.25 1012.44 1012.70 1012.65 1012.54 1012.48 1012.45 1012.30 1012.49 1012.57 1012.60 1012.59 1012.61 1012.54 1012.60 1012.60 1012.53 1012.39 1012.40 1012.36 1012.42 1012.47 1012.87 1013.12 1013.13 1013.14 1012.84 1012.30
1006.45 1007.60 1008.47 1009.39 1010.27 1010.81 1011.30 1011.67 1011.80 1011.97 1012.11 1012.24 1012.32 1012.39 1012.65 1012.69 1012.70 1012.72 1012.78 1012.71 1012.62 1012.41 1012.37 1012.15 1011.91 1012.02 1012.24 1012.23 1012.27 1012.38 1012.35 1012.47 1012.35 1012.19 1012.19 1012.01 1011.81 1011.95 1012.38 1012.65 1012.64 1012.69 1012.58
1006.73 1007.78 1008.73 1009.67 1010.25 1010.94 1011.38 1011.85 1012.02 1012.16 1012.37 1012.70 1012.72 1012.77 1012.90 1013.02 1012.96 1012.92 1012.86 1012.81 1012.67 1012.52 1012.34 1012.14 1011.96 1011.82 1011.57 1011.71 1012.01 1012.11 1012.04 1011.99 1011.93 1011.86 1011.65 1011.50 1011.48 1011.68 1011.53 1011.78 1012.02 1012.12 1012.21
1006.96 1007.85 1008.78 1009.48 1010.20 1011.02 1011.68 1012.01 1012.34 1012.58 1012.77 1012.99 1013.12 1013.12 1013.19 1013.21 1013.28 1013.27 1013.17 1013.04 1012.85 1012.65 1012.43 1012.14 1011.94 1011.77 1011.69 1011.62 1011.78 1011.92 1011.72 1011.38 1011.00 1011.05 1011.07 1010.97 1010.53 1010.52 1010.69 1010.80 1010.94 1011.08 1011.30
1007.46 1008.37 1008.82 1009.57 1010.49 1011.11 1011.63 1012.44 1012.76 1013.02 1013.19 1013.32 1013.33 1013.29 1013.36 1013.37 1013.37 1013.29 1013.16 1012.99 1012.77 1012.57 1012.38 1012.13 1011.93 1011.78 1011.62 1011.58 1011.64 1011.68 1011.53 1011.15 1010.79 1010.48 1010.20 1010.11 1010.20 1010.11 1010.11 1010.30 1010.23 1010.21 1010.09
1007.96 1008.93 1009.34 1010.33 1011.01 1011.59 1012.46 1012.86 1012.99 1013.07 1013.29 1013.32 1013.33 1013.44 1013.49 1013.57 1013.49 1013.28 1013.05 1012.88 1012.70 1012.37 1012.04 1011.79 1011.59 1011.39 1011.22 1011.22 1011.23 1011.37 1011.01 1010.54 1010.19 1009.88 1009.67 1009.48 1009.22 1009.33 1009.71 1009.86 1009.69 1009.48 1009.30
1008.62 1010.09 1010.65 1011.39 1011.82 1012.68 1012.98 1013.18 1013.08 1013.19 1013.21 1013.47 1013.60 1013.76 1014.15 1014.19 1013.86 1013.68 1013.43 1013.22 1012.97 1012.36 1011.92 1011.55 1011.39 1011.16 1010.97 1010.84 1010.82 1010.90 1010.62 1010.02 1009.55 1009.13 1008.80 1008.68 1008.80 1008.92 1009.16 1009.41 1009.16 1009.05 1008.63
1009.76 1010.70 1011.24 1011.81 1012.35 1012.79 1013.09 1013.20 1013.39 1013.38 1014.05 1014.27 1014.41 1014.63 1014.43 1014.40 1014.32 1013.73 1013.54 1013.53 1013.22 1012.86 1012.42 1012.06 1011.90 1011.59 1011.30 1010.87 1010.50 1010.38 1010.27 1009.82 1009.24 1008.58 1008.04 1007.55 1007.45 1007.72 1008.02 1008.31 1008.38 1008.25 1008.25
1010.90 1011.11 1011.39 1011.75 1012.49 1012.98 1013.26 1013.51 1013.76 1014.36 1014.36 1014.40 1014.53 1014.57 1014.64 1014.24 1013.95 1013.91 1013.61 1013.37 1013.03 1012.36 1012.10 1011.78 1011.42 1010.85 1010.25 1009.89 1009.92 1009.96 1009.77 1009.56 1009.23 1008.69 1008.26 1007.85 1007.89 1008.36 1008.36 1008.29 1007.98 1007.97 1008.12
1010.95 1011.39 1011.46 1012.15 1012.61 1013.25 1013.78 1014.03 1014.35 1014.66 1014.60 1014.55 1014.55 1014.45 1014.35 1014.11 1013.72 1013.55 1013.28 1012.78 1012.57 1012.25 1012.00 1011.73 1011.55 1011.09 1010.69 1010.57 1010.23 1010.00 1009.91 1009.86 1009.99 1009.12 1008.43 1008.30 1007.94 1007.62 1007.70 1007.67 1007.34 1007.50 1007.50
1010.93 1011.34 1011.87 1012.26 1012.88 1013.74 1014.07 1014.28 1014.64 1014.85 1014.87 1014.81 1014.64 1014.42 1014.22 1014.07 1013.77 1013.59 1012.82 1012.63 1012.43 1012.17 1012.26 1011.90 1011.70 1011.59 1011.27 1010.73 1010.10 1009.70 1009.35 1009.39 1009.23 1008.98 1008.66 1008.28 1007.84 1007.18 1006.82 1006.63 1006.49 1006.59 1006.48
1011.20 1011.61 1012.09 1012.62 1013.25 1013.96 1014.27 1014.54 1014.90 1015.18 1014.98 1014.85 1014.60 1014.33 1014.09 1013.84 1013.67 1013.54 1013.50 1013.36 1013.05 1012.90 1012.90 1012.54 1012.24 1011.83 1011.33 1010.89 1011.05 1011.21 1010.63 1010.08 1009.55 1009.49 1008.28 1007.15 1006.33 1005.82 1005.42 1005.00 1005.05 1005.38 1005.68
1011.67 1012.22 1012.67 1013.08 1013.61 1013.89 1014.46 1014.94 1015.16 1015.28 1015.06 1014.69 1014.35 1014.18 1014.18 1013.97 1013.76 1013.44 1012.99 1012.93 1012.96 1012.92 1012.72 1012.49 1012.49 1012.02 1011.86 1012.01 1011.67 1011.35 1010.85 1010.28 1009.95 1009.36 1007.96 1006.56 1005.52 1004.76 1004.47 1004.53 1004.49 1004.70 1004.49
Wind_Speed
11 9 10 11 15 12 12 14 13 9 7 6 7 5 6 6 5 5 6 8 8 8 8 7 7 7 6 3 3 3 7 7 4 2 5 4 4 5 4 6 4 10 8
8 9 14 11 12 11 11 7 7 10 7 5 5 6 5 3 4 3 3 5 6 5 8 8 5 9 4 6 5 6 6 8 3 3 2 2 3 5 6 2 4 9 7
18 16 14 12 8 9 8 10 10 9 9 8 5 4 3 2 3 2 3 5 6 9 11 6 8 6 8 8 7 3 8 2 5 1 4 2 3 4 4 6 3 2 6
15 14 13 11 9 9 10 10 10 10 11 12 8 8 5 3 4 5 7 9 9 9 8 10 11 8 8 8 7 8 6 5 3 5 4 5 8 4 3 3 4 4 6
17 14 15 15 16 14 12 10 9 10 9 10 9 6 6 4 4 5 7 7 7 12 10 12 11 9 10 8 8 1 4 3 6 5 4 4 7 4 3 3 4 4 4
14 12 12 10 10 10 9 12 11 10 10 10 10 9 7 6 5 5 5 5 5 7 10 11 10 9 9 8 7 6 5 5 5 6 6 1 3 3 3 2 5 8 7
14 13 13 10 11 9 7 9 12 10 10 10 9 8 8 8 6 6 5 6 5 6 8 10 9 9 10 9 8 6 6 7 6 5 5 3 4 6 6 8 10 2 6
15 14 13 11 8 7 6 6 9 9 9 9 8 7 6 4 6 7 2 8 6 7 10 9 9 9 8 11 10 8 8 9 8 9 7 8 4 7 7 7 5 4 3
15 14 12 10 9 9 8 5 5 6 6 9 7 6 5 5 8 5 2 6 3 8 10 8 8 9 8 7 9 9 9 9 7 8 9 8 9 5 4 5 9 8 7
14 14 11 10 9 10 10 8 6 5 3 3 6 6 5 4 4 6 5 4 5 4 2 6 5 7 10 11 10 10 10 10 8 8 7 6 9 8 8 5 4 6 9
13 12 12 10 8 4 6 7 6 3 1 7 8 5 2 2 4 5 6 5 7 6 7 7 8 8 9 10 10 10 11 10 10 10 9 8 9 9 10 7 9 6 5
12 10 9 8 8 8 10 10 10 9 8 6 6 5 5 3 2 4 6 7 7 5 6 8 8 7 9 10 10 13 12 12 12 11 11 11 10 11 10 10 10 7 8
12 10 11 10 11 11 10 9 8 7 7 5 7 6 4 4 2 3 3 3 5 7 8 8 9 10 10 9 10 11 12 13 12 12 12 12 12 9 11 9 10 11 10
14 13 13 13 12 11 9 7 6 5 7 7 7 6 6 6 5 4 5 6 5 6 6 7 9 10 10 11 11 10 12 13 13 13 12 12 12 11 12 12 11 11 10
17 15 14 13 11 10 7 4 4 5 5 5 6 6 6 6 7 6 6 6 7 8 8 9 8 7 8 9 11 12 12 12 14 14 13 15 14 14 15 10 11 12 10
16 16 14 14 12 10 7 5 3 4 4 5 6 6 7 7 8 8 8 8 8 9 9 9 10 9 9 6 4 5 9 12 12 13 15 14 16 13 13 13 14 13 12
17 16 15 12 10 8 5 3 2 4 5 6 7 8 8 9 9 9 9 10 10 10 10 11 11 11 11 9 5 4 10 11 10 12 13 14 14 15 16 17 19 18 18
15 13 11 11 9 7 6 3 2 3 4 6 7 7 8 9 9 10 10 9 9 9 9 11 11 11 11 9 8 8 11 12 13 13 13 12 14 16 14 13 14 16 16
14 9 8 9 6 5 3 2 4 5 6 7 6 7 8 9 10 10 11 10 10 10 10 10 11 11 11 10 8 7 12 13 13 13 13 14 13 13 13 14 15 15 15
13 7 8 8 8 4 2 4 5 5 5 7 8 9 10 11 11 11 11 10 11 12 11 12 12 13 13 12 11 9 11 14 13 14 15 17 17 15 6 7 12 14 17
13 10 8 5 3 2 2 3 4 4 7 8 8 7 7 8 10 10 8 9 11 10 11 10 11 13 14 16 12 10 11 12 13 13 12 12 15 20 19 17 14 15 12
9 8 6 5 5 3 3 4 4 6 6 7 7 9 9 8 7 9 9 9 11 11 9 10 11 11 11 8 9 10 15 14 12 13 13 14 8 4 10 10 12 13 12
9 6 6 6 4 4 5 5 5 6 7 8 8 9 9 8 8 9 9 8 7 7 7 6 8 9 9 9 16 7 6 7 7 12 13 19 20 19 10 15 15 12 11
9 7 5 4 4 4 1 3 5 6 6 7 7 7 8 9 9 8 8 8 8 7 7 8 7 7 9 9 9 7 8 6 8 8 6 12 16 18 17 15 10 9 9
6 5 5 4 5 2 4 5 5 5 6 7 7 7 6 7 7 7 7 7 9 7 9 9 7 7 9 10 14 13 12 12 14 15 13 13 12 12 12 11 11 10 8
7 5 5 5 4 4 4 3 4 5 5 6 6 6 7 7 7 8 8 4 4 8 10 10 6 7 10 12 12 13 14 14 12 6 11 13 13 13 11 10 9 12 14
Wind_Direction
131 154 200 212 215 167 179 180 178 183 178 201 203 197 203 218 219 229 217 174 178 185 215 234 187 241 243 216 307 255 265 280 239 299 75 301 272 274 171 207 199 152 183
145 194 226 191 199 173 174 162 169 187 191 194 212 215 234 238 168 196 141 194 195 198 225 235 220 217 269 211 239 265 272 251 163 102 59 345 274 247 258 165 285 158 199
169 185 185 195 152 147 159 175 187 186 181 205 210 228 220 230 81 14 225 237 203 211 226 238 228 232 244 229 216 211 280 311 335 358 142 145 218 338 66 253 246 185 219
140 163 163 153 155 148 163 166 182 187 192 198 205 207 209 167 188 186 204 214 209 215 236 222 232 211 244 254 203 201 234 245 238 291 240 219 168 161 253 122 286 207 268
143 151 157 166 164 167 163 159 176 183 198 200 232 190 220 216 205 176 211 235 207 208 225 222 226 223 233 234 252 283 230 245 265 201 234 329 81 313 101 26 307 320 218
151 154 130 142 145 152 168 156 172 194 206 204 211 215 245 217 210 220 198 212 217 212 211 211 210 218 235 235 233 249 261 275 302 324 307 192 78 90 94 43 249 228 239
151 151 156 170 160 164 188 168 174 194 202 209 216 209 226 228 235 210 207 204 197 195 209 203 198 200 212 228 224 226 240 237 245 250 272 296 193 178 183 165 237 271 265
162 166 167 169 172 169 201 223 172 199 203 213 223 232 237 251 220 231 269 191 203 201 168 203 204 217 207 210 212 216 227 226 208 223 262 296 212 202 227 209 268 225 235
170 169 167 168 173 169 172 168 163 179 201 201 210 218 225 244 322 330 259 205 220 179 183 186 203 208 211 221 223 223 228 258 216 234 220 236 272 264 256 331 301 292 296
166 158 167 170 183 191 178 169 165 195 199 208 205 207 183 210 244 269 267 296 315 227 217 199 237 236 218 208 221 237 201 237 241 242 243 281 278 282 252 207 243 307 301
169 155 167 160 180 166 113 140 161 185 119 44 47 55 349 271 221 236 244 236 251 246 222 219 239 213 229 227 221 238 261 225 223 245 273 226 252 273 285 262 247 241 255
157 153 153 148 137 134 113 91 91 100 86 85 82 77 94 127 314 296 277 273 265 233 235 234 233 244 242 216 218 228 236 227 246 243 239 247 240 223 243 273 283 281 290
152 162 144 128 112 115 122 122 103 80 87 84 75 53 45 25 44 5 340 293 300 290 271 205 241 245 245 241 237 232 236 244 243 238 240 235 242 247 259 269 271 240 224
159 158 142 139 136 127 125 122 100 73 53 39 40 35 14 12 16 359 351 328 327 305 277 278 278 259 254 256 252 250 245 243 244 242 246 241 239 236 241 246 254 279 275
168 151 154 142 141 136 135 130 103 83 46 16 3 8 356 348 338 337 332 322 325 322 313 302 294 259 254 252 254 256 257 255 255 258 260 252 242 228 222 234 242 243 258
170 157 156 155 153 151 164 150 122 54 28 347 341 347 341 340 330 327 323 315 304 301 295 290 288 287 285 96 153 258 265 263 262 259 257 256 269 251 240 219 227 242 237
174 166 164 161 148 153 146 154 48 4 347 336 329 328 327 327 325 324 317 309 305 302 294 289 286 285 284 299 298 248 281 282 272 255 258 260 251 236 237 232 220 226 234
162 166 170 148 154 157 123 103 290 301 298 304 307 321 319 318 317 314 311 308 303 298 293 289 288 286 281 277 260 221 267 275 273 274 272 256 254 262 264 253 253 238 233
157 161 148 144 117 109 106 282 294 301 298 301 326 324 319 313 313 310 313 313 304 299 296 289 283 278 275 270 261 240 274 271 268 265 264 266 265 254 245 256 256 257 247
136 140 111 150 153 146 242 316 313 330 311 353 339 346 342 322 315 315 308 315 309 298 302 309 310 304 293 275 262 253 275 273 271 266 254 233 242 253 219 247 264 257 254
135 163 166 149 124 139 1 320 324 321 6 334 345 305 301 327 298 298 326 319 305 299 295 300 299 292 290 292 280 238 260 270 277 274 272 270 223 226 230 229 245 252 273
137 174 170 159 132 68 360 326 322 4 334 324 321 331 309 302 316 306 300 305 295 288 291 305 303 305 298 286 291 273 246 258 267 277 279 288 34 356 274 251 247 247 257
157 170 156 157 142 88 16 328 16 336 333 330 328 318 319 312 310 318 300 292 297 314 304 300 315 314 321 321 320 1 357 308 284 284 306 317 308 303 262 231 234 228 250
160 145 152 136 122 69 24 6 2 352 331 324 330 329 329 337 321 323 323 334 321 322 339 324 304 304 301 295 286 308 316 279 271 267 282 295 290 275 278 292 233 234 255
128 121 132 124 104 101 64 26 2 338 335 337 330 332 323 327 324 324 318 314 302 334 322 306 301 300 304 311 349 339 321 315 312 325 294 280 269 267 271 271 273 263 244
124 121 108 103 109 101 94 59 354 349 343 338 348 352 336 339 334 328 329 308 327 306 297 295 266 315 311 6 343 325 309 300 302 289 278 274 271 270 262 257 245 247 242